TimeMST,TemperatureF,Dew PointF,Humidity,Sea Level PressureIn,VisibilityMPH,Wind Direction,Wind SpeedMPH,Gust SpeedMPH,PrecipitationIn,Events,Conditions,WindDirDegrees,DateUTC
12:11 AM,37.4,35.6,93,29.89,10.0,NW,8.1,-,0.00,,Overcast,320,2013-11-21 07:11:00
12:53 AM,37.0,35.1,93,29.86,10.0,Calm,Calm,-,0.00,,Overcast,0,2013-11-21 07:53:00
1:53 AM,37.0,34.0,89,29.86,10.0,NW,4.6,-,N/A,,Overcast,320,2013-11-21 08:53:00
2:53 AM,37.0,33.1,86,29.88,10.0,Calm,Calm,-,N/A,,Overcast,0,2013-11-21 09:53:00
3:11 AM,37.4,33.8,87,29.92,10.0,Calm,Calm,-,N/A,,Overcast,0,2013-11-21 10:11:00
3:53 AM,36.0,32.0,86,29.88,10.0,NW,8.1,-,N/A,,Overcast,320,2013-11-21 10:53:00
4:48 AM,35.6,30.2,81,29.93,10.0,WNW,5.8,-,N/A,,Overcast,290,2013-11-21 11:48:00
4:53 AM,36.0,30.9,82,29.91,10.0,WNW,4.6,-,N/A,,Overcast,300,2013-11-21 11:53:00
5:53 AM,36.0,32.0,86,29.94,10.0,Calm,Calm,-,N/A,,Overcast,0,2013-11-21 12:53:00
6:53 AM,35.1,30.0,82,29.96,10.0,NW,9.2,-,N/A,,Overcast,310,2013-11-21 13:53:00
7:53 AM,35.1,30.0,82,29.98,9.0,NW,5.8,-,0.00,,Overcast,320,2013-11-21 14:53:00
8:53 AM,37.0,30.0,76,29.99,10.0,NE,9.2,-,0.01,,Overcast,40,2013-11-21 15:53:00
9:53 AM,37.9,28.0,68,30.03,10.0,Variable,3.5,-,N/A,,Overcast,0,2013-11-21 16:53:00
10:53 AM,39.9,26.1,58,30.05,10.0,NE,18.4,25.3,N/A,,Overcast,50,2013-11-21 17:53:00
11:53 AM,41.0,24.1,51,30.05,10.0,NE,21.9,29.9,N/A,,Overcast,40,2013-11-21 18:53:00
12:53 PM,39.9,23.0,51,30.05,10.0,NE,17.3,27.6,N/A,,Overcast,40,2013-11-21 19:53:00
1:46 PM,37.4,21.2,52,30.08,10.0,NNE,19.6,27.6,N/A,,Overcast,30,2013-11-21 20:46:00
1:53 PM,39.0,21.9,50,30.09,10.0,NE,15.0,26.5,N/A,,Overcast,40,2013-11-21 20:53:00
2:53 PM,37.9,21.9,53,30.13,10.0,Variable,4.6,-,N/A,,Overcast,0,2013-11-21 21:53:00
3:19 PM,39.2,17.6,42,30.13,10.0,NE,15.0,32.2,N/A,,Overcast,50,2013-11-21 22:19:00
3:53 PM,37.9,17.1,43,30.16,10.0,NE,17.3,36.8,N/A,,Overcast,50,2013-11-21 22:53:00
4:53 PM,39.0,17.1,41,30.17,10.0,Variable,4.6,-,N/A,,Overcast,0,2013-11-21 23:53:00
5:53 PM,37.9,18.0,45,30.19,10.0,Variable,6.9,-,N/A,,Overcast,0,2013-11-22 00:53:00
6:53 PM,37.9,17.1,43,30.22,10.0,SE,13.8,24.2,N/A,,Overcast,140,2013-11-22 01:53:00
7:53 PM,36.0,17.1,46,30.25,10.0,West,13.8,23.0,N/A,,Overcast,270,2013-11-22 02:53:00
8:53 PM,36.0,17.1,46,30.26,10.0,WNW,10.4,-,N/A,,Overcast,300,2013-11-22 03:53:00
9:53 PM,36.0,10.9,36,30.26,10.0,ENE,8.1,-,N/A,,Partly Cloudy,70,2013-11-22 04:53:00
10:53 PM,35.1,7.0,31,30.26,10.0,West,10.4,-,N/A,,Clear,260,2013-11-22 05:53:00
11:53 PM,36.0,1.9,24,30.28,10.0,NW,4.6,-,N/A,,Clear,320,2013-11-22 06:53:00